Location: Neuvy Saint Sepulchre
(46.5953°N, 1.8122°E)
Time: 15:48:50
(UTC+02:00)

ISS - Pass Details

Date: 14 May 2026
Orbit: 414 x 424 km, 51.6° (Epoch: 21 May)

Event Time Altitude Azimuth Distance (km) Brightness Sun altitude
Rises 22:30:37 0° 272° (W) 2,348 0.9 -10.8°
Reaches altitude 10° 22:32:48 10° 281° (W) 1,487 0.0 -11.1°
Maximum altitude 22:35:55 36° 350° (N) 670 -2.2 -11.5°
Drops below altitude 10° 22:39:04 10° 60° (ENE) 1,491 -1.1 -11.8°
Sets 22:41:16 0° 69° (ENE) 2,356 -0.2 -12.1°
Enters shadow 22:41:23 - 69° (ENE) 2,403 -0.1 -12.1°
